Change the Weather History Date:

Wednesday, December 26, 2012

  Actual Average Record
Temperature  
Mean Temperature 49 °F -  
Max Temperature 59 °F 48 °F 59 °F (2012)
Min Temperature 39 °F 33 °F 25 °F (2013)
Degree Days  
Heating Degree Days 16    
Moisture  
Dew Point 47 °F    
Average Humidity 92    
Maximum Humidity 100    
Minimum Humidity 76    
Precipitation  
Precipitation 1.21 in - - ()
Sea Level Pressure  
Sea Level Pressure 29.68 in    
Wind  
Wind Speed 9 mph (ENE)    
Max Wind Speed 17 mph    
Max Gust Speed 30 mph    
Visibility 7 miles    
Events Rain , Thunderstorm    
Averages and records for this station are not official NWS values.
T = Trace of Precipitation, MM = Missing Value Source: NWS Daily Summary

Daily Weather History Graph

Daily Weather History Graph

Search for Another Location

Airport or City:

Trip Planner

Search our weather history database for the weather conditions in past years. The results will help you decide how hot, cold, wet, or windy it might be!

Date:

Astronomy

Dec. 26, 2012 Rise Set
Actual Time 7:18 AM EST 4:56 PM EST
Civil Twilight 6:49 AM EST 5:25 PM EST
Nautical Twilight 6:16 AM EST 5:57 PM EST
Astronomical Twilight 5:45 AM EST 6:29 PM EST
Moon 3:47 PM EST (12/26) 5:41 AM EST (12/26)
Length of Visible Light 10h 35m
Length of Day
9h 37m
Waxing Gibbous, 97% of the Moon is Illuminated
Dec 26
Waxing Gibbous
Dec 28
Full
Jan 4
Last Quarter
Jan 11
New
Jan 18
First Quarter

Hourly Weather History & Observations

Time (EST) Temp. Windchill Dew Point Humidity Pressure Visibility Wind Dir Wind Speed Gust Speed Precip Events Conditions
12:33 AM 44.6 °F 41.4 °F 39.2 °F 81% 30.19 in 10.0 mi NE 5.8 mph - N/A   Overcast
12:55 AM 44.1 °F 38.6 °F 37.9 °F 79% 30.19 in 10.0 mi ENE 10.4 mph - N/A   Overcast
2:55 AM 42.4 °F 37.0 °F 35.4 °F 76% 30.15 in 10.0 mi East 9.2 mph - N/A   Overcast
3:55 AM 42.6 °F 37.2 °F 36.7 °F 79% 30.14 in 10.0 mi ENE 9.2 mph 17.3 mph N/A   Overcast
4:54 AM 42.8 °F 37.0 °F 37.4 °F 81% 30.12 in 10.0 mi East 10.4 mph - N/A   Overcast
4:55 AM 42.6 °F 37.2 °F 36.9 °F 80% 30.12 in 10.0 mi East 9.2 mph - 0.00 in   Light Drizzle
5:09 AM 42.8 °F 39.3 °F 37.4 °F 81% 30.12 in 10.0 mi Variable 5.8 mph - N/A Rain Light Rain
5:24 AM 42.8 °F 37.5 °F 37.4 °F 81% 30.10 in 10.0 mi NE 9.2 mph - N/A   Light Drizzle
5:39 AM 42.8 °F 39.3 °F 37.4 °F 81% 30.10 in 10.0 mi NE 5.8 mph - N/A Rain Light Rain
5:55 AM 41.7 °F 36.7 °F 38.1 °F 87% 30.08 in 10.0 mi NE 8.1 mph - 0.01 in Rain Light Rain
6:19 AM 41.0 °F 36.4 °F 37.4 °F 87% 30.06 in 10.0 mi NE 6.9 mph - N/A   Mostly Cloudy
6:53 AM 41.0 °F 34.7 °F 39.2 °F 93% 30.05 in 10.0 mi ENE 10.4 mph - N/A   Light Drizzle
6:55 AM 41.9 °F 35.4 °F 38.3 °F 87% 30.05 in 10.0 mi ENE 11.5 mph - 0.00 in   Light Drizzle
7:09 AM 42.8 °F 38.6 °F 39.2 °F 87% 30.05 in 10.0 mi Variable 6.9 mph - N/A   Overcast
7:15 AM 42.8 °F 38.6 °F 39.2 °F 87% 30.05 in 10.0 mi Variable 6.9 mph - N/A Rain Light Rain
7:30 AM 42.8 °F 36.6 °F 39.2 °F 87% 30.02 in 10.0 mi ENE 11.5 mph 17.3 mph N/A   Light Drizzle
7:33 AM 42.8 °F 36.6 °F 39.2 °F 87% 30.01 in 10.0 mi ENE 11.5 mph - N/A   Mostly Cloudy
7:55 AM 42.6 °F 36.8 °F 39.6 °F 89% 30.01 in 10.0 mi ENE 10.4 mph - 0.00 in   Mostly Cloudy
8:06 AM 42.8 °F 36.6 °F 39.2 °F 87% 29.99 in 10.0 mi ENE 11.5 mph 19.6 mph N/A   Overcast
8:13 AM 42.8 °F 36.6 °F 39.2 °F 87% 29.99 in 10.0 mi ENE 11.5 mph 20.7 mph N/A   Light Drizzle
8:17 AM 42.8 °F 37.5 °F 39.2 °F 87% 29.98 in 10.0 mi ENE 9.2 mph 20.7 mph N/A   Light Drizzle
8:19 AM 42.8 °F 36.6 °F 39.2 °F 87% 29.98 in 10.0 mi ENE 11.5 mph 20.7 mph N/A   Overcast
8:21 AM 42.8 °F 37.5 °F 39.2 °F 87% 29.98 in 10.0 mi ENE 9.2 mph 20.7 mph N/A   Overcast
8:22 AM 42.8 °F 37.5 °F 39.2 °F 87% 29.98 in 10.0 mi ENE 9.2 mph 20.7 mph N/A   Overcast
8:32 AM 42.8 °F 36.6 °F 39.2 °F 87% 29.98 in 10.0 mi ENE 11.5 mph - N/A   Light Drizzle
8:55 AM 43.3 °F 37.2 °F 40.3 °F 89% 29.95 in 10.0 mi ENE 11.5 mph 20.7 mph 0.00 in Rain Light Rain
9:12 AM 42.8 °F 37.0 °F 41.0 °F 93% 29.95 in 6.0 mi ENE 10.4 mph 17.3 mph N/A Rain Light Rain
9:55 AM 44.4 °F 38.6 °F 42.8 °F 94% 29.91 in 4.0 mi East 11.5 mph 20.7 mph 0.06 in   Overcast
10:15 AM 44.6 °F 38.8 °F 44.6 °F 100% 29.87 in 5.0 mi East 11.5 mph 21.9 mph N/A Rain Light Rain
10:31 AM 46.4 °F 41.1 °F 44.6 °F 93% 29.87 in 6.0 mi East 11.5 mph 19.6 mph N/A   Overcast
10:37 AM 46.4 °F 40.7 °F 44.6 °F 93% 29.85 in 6.0 mi East 12.7 mph 19.6 mph N/A   Overcast
10:55 AM 47.5 °F - 45.7 °F 93% 29.83 in 5.0 mi East 15.0 mph 25.3 mph 0.10 in   Overcast
11:10 AM 48.2 °F - 46.4 °F 93% 29.81 in 2.5 mi East 15.0 mph 27.6 mph N/A   Overcast
11:12 AM 48.2 °F - 46.4 °F 93% 29.81 in 3.0 mi East 12.7 mph 27.6 mph N/A   Overcast
11:15 AM 48.2 °F - 46.4 °F 93% 29.80 in 3.0 mi East 17.3 mph 26.5 mph N/A Rain Light Rain
11:37 AM 48.2 °F - 46.4 °F 93% 29.76 in 6.0 mi East 13.8 mph 19.6 mph N/A   Overcast
11:46 AM 48.2 °F - 46.4 °F 93% 29.75 in 4.0 mi East 13.8 mph 23.0 mph N/A Rain Light Rain
11:55 AM 48.6 °F - 46.9 °F 94% 29.73 in 4.0 mi East 17.3 mph 25.3 mph 0.11 in Rain Light Rain
11:56 AM 48.2 °F - 46.4 °F 93% 29.73 in 4.0 mi East 16.1 mph 25.3 mph N/A   Overcast
12:02 PM 48.2 °F - 46.4 °F 93% 29.73 in 4.0 mi East 12.7 mph 29.9 mph N/A Rain Light Rain
12:28 PM 50.0 °F - 48.2 °F 94% 29.70 in 10.0 mi Variable 5.8 mph - N/A Rain Light Rain
12:41 PM 50.0 °F - 48.2 °F 94% 29.68 in 10.0 mi Calm Calm - N/A Rain Light Rain
12:55 PM 50.2 °F - 48.6 °F 94% 29.65 in 4.0 mi East 11.5 mph 20.7 mph 0.08 in Rain Light Rain
12:56 PM 50.0 °F - 48.2 °F 94% 29.65 in 4.0 mi East 12.7 mph 20.7 mph N/A   Overcast
1:02 PM 50.0 °F - 48.2 °F 94% 29.65 in 2.5 mi East 13.8 mph 21.9 mph N/A   Overcast
1:03 PM 50.0 °F - 48.2 °F 94% 29.65 in 2.0 mi East 11.5 mph 21.9 mph N/A Rain Heavy Rain
1:04 PM 50.0 °F - 48.2 °F 94% 29.65 in 1.8 mi East 11.5 mph 21.9 mph N/A Rain Heavy Rain
1:24 PM 51.8 °F - 50.0 °F 94% 29.64 in 2.0 mi East 13.8 mph 19.6 mph N/A Rain Light Rain
1:31 PM 51.8 °F - 50.0 °F 94% 29.64 in 2.5 mi East 6.9 mph - N/A Rain Rain
1:36 PM 51.8 °F - 50.0 °F 94% 29.62 in 2.0 mi ENE 10.4 mph - N/A Rain Rain
1:39 PM 51.8 °F - 50.0 °F 94% 29.60 in 2.0 mi ENE 11.5 mph - N/A Rain Rain
1:44 PM 51.8 °F - 50.0 °F 94% 29.60 in 2.5 mi East 11.5 mph - N/A Rain Rain
1:46 PM 51.8 °F - 50.0 °F 94% 29.60 in 3.0 mi ENE 10.4 mph - N/A Rain Light Rain
1:48 PM 51.8 °F - 51.8 °F 100% 29.60 in 4.0 mi ENE 8.1 mph - N/A Rain Light Rain
1:55 PM 52.3 °F - 51.3 °F 96% 29.58 in 10.0 mi East 6.9 mph - 0.39 in   Light Drizzle
1:58 PM 51.8 °F - 51.8 °F 100% 29.58 in 10.0 mi East 8.1 mph - N/A   Light Drizzle
2:08 PM 53.6 °F - 51.8 °F 94% 29.57 in 10.0 mi Variable 5.8 mph - N/A Rain Light Rain
2:14 PM 53.6 °F - 51.8 °F 94% 29.56 in 10.0 mi East 4.6 mph - N/A   Overcast
2:21 PM 53.6 °F - 53.6 °F 100% 29.55 in 10.0 mi East 6.9 mph - N/A   Overcast
2:33 PM 55.4 °F - 53.6 °F 94% 29.51 in 10.0 mi East 9.2 mph - N/A Rain Light Rain
2:43 PM 55.4 °F - 55.4 °F 100% 29.53 in 9.0 mi East 8.1 mph 19.6 mph N/A   Overcast
2:50 PM 55.4 °F - 55.4 °F 100% 29.50 in 7.0 mi ESE 9.2 mph - N/A   Overcast
2:55 PM 56.5 °F - 55.4 °F 96% 29.48 in 5.0 mi East 8.1 mph - 0.07 in Rain Rain
3:05 PM 57.2 °F - 55.4 °F 94% 29.48 in 6.0 mi ESE 8.1 mph - N/A Rain Light Rain
3:13 PM 57.2 °F - 57.2 °F 100% 29.47 in 8.0 mi ESE 10.4 mph - N/A Rain Light Rain
3:36 PM 59.0 °F - 57.2 °F 94% 29.45 in 6.0 mi Variable 1.2 mph - N/A Rain , Thunderstorm Light Rain
3:41 PM 59.0 °F - 57.2 °F 94% 29.51 in 5.0 mi WSW 9.2 mph - N/A Rain , Thunderstorm Thunderstorms and Rain
3:43 PM 57.2 °F - 57.2 °F 100% 29.55 in 1.8 mi SW 11.5 mph - N/A Rain , Thunderstorm Light Rain
3:45 PM 57.2 °F - 57.2 °F 100% 29.52 in 1.0 mi South 13.8 mph - N/A Rain , Thunderstorm Heavy Thunderstorms and Rain
3:55 PM 59.0 °F - 55.4 °F 88% 29.46 in 2.0 mi ESE 10.4 mph 23.0 mph 0.33 in Rain , Thunderstorm Thunderstorms and Rain
4:01 PM 59.0 °F - 57.2 °F 94% 29.44 in 3.0 mi ESE 12.7 mph - N/A Rain , Thunderstorm Light Thunderstorms and Rain
4:14 PM 59.0 °F - 55.4 °F 88% 29.44 in 9.0 mi SSE 10.4 mph - N/A Rain Light Rain
4:46 PM 59.0 °F - 55.4 °F 88% 29.42 in 10.0 mi SE 10.4 mph - N/A   Partly Cloudy
4:55 PM 57.6 °F - 54.7 °F 90% 29.41 in 10.0 mi SSE 8.1 mph - 0.05 in   Partly Cloudy
5:46 PM 57.2 °F - 53.6 °F 88% 29.40 in 10.0 mi South 5.8 mph - N/A   Mostly Cloudy
5:55 PM 57.0 °F - 54.7 °F 92% 29.40 in 10.0 mi South 3.5 mph - N/A   Mostly Cloudy
6:15 PM 57.2 °F - 55.4 °F 94% 29.40 in 10.0 mi SW 3.5 mph - N/A   Light Drizzle
6:26 PM 57.2 °F - 55.4 °F 94% 29.40 in 10.0 mi Calm Calm - N/A   Mostly Cloudy
6:31 PM 57.2 °F - 55.4 °F 94% 29.38 in 10.0 mi Calm Calm - N/A   Mostly Cloudy
6:55 PM 54.7 °F - 53.8 °F 97% 29.39 in 10.0 mi Calm Calm - 0.01 in   Mostly Cloudy
6:59 PM 55.4 °F - 53.6 °F 94% 29.39 in 10.0 mi Calm Calm - N/A   Mostly Cloudy
7:00 PM 55.4 °F - 53.6 °F 94% 29.39 in 10.0 mi Calm Calm - N/A   Mostly Cloudy
7:01 PM 55.4 °F - 53.6 °F 94% 29.39 in 10.0 mi Calm Calm - N/A   Mostly Cloudy
7:10 PM 55.4 °F - 53.6 °F 94% 29.38 in 10.0 mi WNW 4.6 mph - N/A   Mostly Cloudy
7:39 PM 53.6 °F - 51.8 °F 94% 29.39 in 10.0 mi NW 8.1 mph - N/A   Overcast
7:50 PM 50.0 °F - 50.0 °F 100% 29.40 in 6.0 mi NW 9.2 mph - N/A   Overcast
7:55 PM 50.0 °F - 48.9 °F 96% 29.40 in 5.0 mi NW 8.1 mph - N/A   Overcast
8:03 PM 50.0 °F - 48.2 °F 94% 29.40 in 4.0 mi NW 6.9 mph - N/A Rain Light Rain
8:06 PM 48.2 °F - 48.2 °F 100% 29.40 in 4.0 mi WNW 6.9 mph - N/A Rain Light Rain
8:12 PM 48.2 °F - 48.2 °F 100% 29.41 in 3.0 mi NW 6.9 mph - N/A   Overcast
8:23 PM 48.2 °F - 46.4 °F 93% 29.41 in 5.0 mi WNW 8.1 mph - N/A   Overcast
8:40 PM 46.4 °F 42.4 °F 46.4 °F 100% 29.41 in 4.0 mi NW 8.1 mph - N/A   Overcast
8:55 PM 47.1 °F - 46.6 °F 98% 29.42 in 4.0 mi WNW 8.1 mph - 0.00 in   Overcast
9:07 PM 46.4 °F 42.4 °F 46.4 °F 100% 29.42 in 4.0 mi WNW 8.1 mph - N/A   Overcast
9:51 PM 46.4 °F 40.4 °F 46.4 °F 100% 29.43 in 10.0 mi West 13.8 mph - N/A   Overcast
9:52 PM 46.4 °F 40.7 °F 46.4 °F 100% 29.44 in 10.0 mi West 12.7 mph - N/A   Overcast
9:55 PM 46.2 °F 40.8 °F 45.1 °F 96% 29.44 in 9.0 mi West 11.5 mph - N/A   Overcast
10:24 PM 46.4 °F 41.5 °F 44.6 °F 93% 29.45 in 10.0 mi West 10.4 mph - N/A   Overcast
10:37 PM 44.6 °F 37.8 °F 42.8 °F 93% 29.46 in 10.0 mi West 15.0 mph - N/A   Overcast
10:55 PM 43.2 °F 36.6 °F 41.2 °F 93% 29.47 in 10.0 mi West 12.7 mph 19.6 mph N/A   Overcast
11:02 PM 42.8 °F 37.5 °F 41.0 °F 93% 29.47 in 10.0 mi West 9.2 mph 19.6 mph N/A   Overcast
11:25 PM 41.0 °F 33.9 °F 39.2 °F 93% 29.48 in 10.0 mi West 12.7 mph 19.6 mph N/A   Overcast
11:55 PM 39.6 °F 32.1 °F 37.9 °F 94% 29.49 in 10.0 mi West 12.7 mph 19.6 mph N/A   Overcast
11:58 PM 39.2 °F 32.5 °F 37.4 °F 93% 29.50 in 10.0 mi West 10.4 mph 19.6 mph N/A   Overcast